Flag for Germany Weather past 2 weeks in Worms, Rhineland-Palatinate, Germany

Now
70 °F

Partly sunny.


Feels Like: 70 °F
Forecast: 53 / 68 °F
Wind: 2 mph from North

Location: Baden Wurttemberg - Neuostheim

Current Time: Sep 2, 2015 at 7:20:41 PM

Latest Report: Sep 2, 2015 at 6:50 PM


Visibility: N/A

Pressure: 29.98 "Hg

Humidity: 46%

Dew point: 48 °F

Location of WormsLocation

Historic Weather in Worms — Graph

°F

Worms temperature yesterday

Maximum temperature yesterday: 81 °F (at 11:50 AM)
Minimum temperature yesterday: 61 °F (at 11:50 PM)
Average temperature yesterday: 70 °F

Past Weeks' High & Low Weather Summary

 TemperatureHumidityPressure
High93 °F (Aug 30, 4:50 PM)100% (Aug 21, 6:50 AM)30.27 "Hg (Aug 21, 6:50 AM)
Low54 °F (Aug 19, 5:20 AM)21% (Aug 31, 4:20 PM)29.68 "Hg (Aug 23, 4:50 PM)
Average72 °F59%30.01 "Hg
* Reported Aug 18 5:20 PM — Sep 2 5:20 PM, Worms, Weather by CustomWeather, © 2015

Note: Actual official high and low records may vary slightly from our data, if they occured in-between our weather recording intervals... More about our weather records

Advertising

Worms weather history for previous 24 hours

 ConditionsComfort  
Time TempWeatherWind HumidityBarometerVisibility
5:20 PM
Wed, Sep 2
72 °FSunny.2 mph41%29.98 "Hg10 mi
4:50 PM70 °FPartly sunny.3 mph43%29.98 "HgN/A
4:20 PM72 °FPartly sunny.3 mph44%29.98 "HgN/A
3:50 PM70 °FPartly sunny.5 mph50%29.98 "HgN/A
3:20 PM70 °FPartly sunny.5 mph50%30.01 "HgN/A
2:50 PM70 °FPartly sunny.5 mph50%30.01 "HgN/A
2:20 PM70 °FPartly sunny.3 mph50%30.01 "HgN/A
1:50 PM68 °FPartly sunny.2 mph53%30.01 "HgN/A
1:20 PM68 °FBroken clouds.3 mph56%30.01 "HgN/A
12:50 PM68 °FScattered clouds.2 mph56%30.04 "HgN/A
12:20 PM66 °FScattered clouds.2 mph60%30.04 "HgN/A
11:50 AM66 °FSunny.2 mph64%30.04 "HgN/A
11:20 AM64 °FScattered clouds.2 mph68%30.04 "HgN/A
10:50 AM64 °FScattered clouds.2 mph68%30.04 "HgN/A
10:20 AM64 °FPassing clouds.2 mph64%30.07 "HgN/A
9:50 AM61 °FPassing clouds.3 mph77%30.07 "HgN/A
9:20 AM63 °FPassing clouds.2 mph73%30.07 "HgN/A
8:50 AM61 °FScattered clouds.3 mph83%30.07 "HgN/A
8:20 AM59 °FScattered clouds.3 mph82%30.07 "HgN/A
7:50 AM59 °FScattered clouds.5 mph82%30.07 "HgN/A
7:20 AM59 °FPassing clouds.5 mph88%30.07 "HgN/A
6:50 AM59 °FPassing clouds.2 mph82%30.07 "HgN/A
5:50 AM59 °FMostly cloudy.1 mph88%30.07 "HgN/A
11:50 PM
Tue, Sep 1
61 °FClear.5 mph77%30.07 "Hg10 mi
9:20 PM64 °FClear.9 mph68%30.01 "Hg10 mi
8:50 PM66 °FPartly sunny.10 mph64%30.01 "HgN/A
8:20 PM66 °FSunny.9 mph68%30.01 "Hg10 mi
7:50 PM66 °FBroken clouds.7 mph68%29.98 "HgN/A
7:20 PM66 °FPartly sunny.12 mph68%29.98 "HgN/A
Weather by CustomWeather, © 2015

See weather overviewHow to use our weather pages